Total_Precipitation_Accumulation
0.02 0.05 0.16 0.29 0.46 0.73 0.91 0.57 0.38 0.36 0.28 0.31 0.29 0.26 0.28 0.31 0.34 0.51 0.28 0.13 0.07 0.05 0.04 0.08 0.09 0.08 0.08 0.09 0.12 0.15 0.15 0.12 0.12 0.13 0.13 0.11 0.11 0.11 0.10 0.11 0.16 0.18 0.16 0.13 0.12 0.12 0.12 0.14 0.14
0.01 0.06 0.17 0.28 0.58 1.06 0.91 0.46 0.32 0.36 0.26 0.29 0.34 0.34 0.33 0.32 0.24 0.19 0.20 0.16 0.07 0.05 0.06 0.06 0.07 0.07 0.08 0.09 0.10 0.13 0.15 0.16 0.16 0.17 0.14 0.13 0.13 0.13 0.12 0.12 0.14 0.17 0.15 0.13 0.09 0.09 0.09 0.09 0.07
0.03 0.08 0.16 0.24 0.60 0.90 0.66 0.37 0.25 0.25 0.25 0.37 0.47 0.42 0.38 0.34 0.26 0.20 0.16 0.13 0.11 0.09 0.07 0.09 0.08 0.07 0.08 0.09 0.10 0.12 0.15 0.17 0.19 0.18 0.16 0.16 0.14 0.14 0.13 0.12 0.14 0.14 0.11 0.10 0.09 0.10 0.09 0.07 0.05
0.03 0.09 0.15 0.22 0.36 0.36 0.34 0.28 0.19 0.30 0.37 0.38 0.46 0.50 0.45 0.36 0.31 0.27 0.21 0.21 0.13 0.11 0.09 0.12 0.13 0.11 0.10 0.10 0.12 0.14 0.15 0.16 0.17 0.15 0.14 0.14 0.14 0.15 0.14 0.13 0.15 0.17 0.17 0.13 0.13 0.13 0.12 0.09 0.06
0.02 0.07 0.15 0.20 0.29 0.25 0.23 0.26 0.22 0.30 0.34 0.37 0.40 0.55 0.53 0.41 0.31 0.31 0.24 0.26 0.14 0.16 0.16 0.20 0.21 0.18 0.14 0.12 0.13 0.14 0.14 0.16 0.16 0.14 0.13 0.13 0.14 0.15 0.15 0.14 0.14 0.14 0.17 0.17 0.17 0.16 0.12 0.12 0.11
0.02 0.08 0.17 0.18 0.18 0.17 0.19 0.25 0.29 0.35 0.39 0.43 0.51 0.71 0.64 0.42 0.33 0.38 0.45 0.37 0.22 0.23 0.23 0.25 0.24 0.21 0.19 0.16 0.15 0.15 0.14 0.14 0.15 0.15 0.13 0.12 0.12 0.13 0.15 0.16 0.14 0.12 0.12 0.14 0.16 0.19 0.15 0.12 0.16
0.02 0.05 0.10 0.12 0.12 0.15 0.17 0.19 0.27 0.45 0.63 0.65 0.69 0.80 0.70 0.63 0.54 0.52 0.63 0.61 0.45 0.39 0.31 0.32 0.29 0.23 0.20 0.19 0.18 0.17 0.17 0.16 0.15 0.15 0.16 0.14 0.12 0.12 0.14 0.16 0.16 0.14 0.12 0.12 0.14 0.14 0.14 0.12 0.16
0.01 0.02 0.04 0.05 0.09 0.14 0.15 0.16 0.20 0.35 0.69 0.67 0.64 0.67 0.83 0.71 0.69 0.85 0.87 0.84 0.67 0.57 0.44 0.41 0.39 0.34 0.28 0.26 0.25 0.25 0.22 0.20 0.19 0.18 0.20 0.22 0.21 0.19 0.22 0.21 0.20 0.21 0.21 0.18 0.16 0.18 0.17 0.18 0.17
0.01 0.03 0.04 0.03 0.06 0.08 0.10 0.14 0.20 0.31 0.44 0.54 0.70 0.64 0.68 0.59 0.63 0.84 0.97 0.98 0.89 0.76 0.64 0.54 0.52 0.48 0.42 0.39 0.36 0.35 0.34 0.31 0.29 0.30 0.30 0.31 0.33 0.38 0.42 0.36 0.37 0.37 0.38 0.40 0.40 0.41 0.40 0.37 0.28
0.01 0.02 0.02 0.02 0.04 0.05 0.06 0.10 0.14 0.35 0.73 0.94 1.00 0.79 0.64 0.66 0.91 1.13 1.22 1.10 1.06 0.88 0.77 0.75 0.72 0.61 0.51 0.43 0.48 0.54 0.51 0.51 0.49 0.58 0.56 0.57 0.64 0.60 0.48 0.54 0.66 0.81 0.88 0.88 0.96 1.07 0.87 0.68 0.68
0.00 0.00 0.01 0.03 0.04 0.03 0.03 0.06 0.14 0.30 0.70 0.91 0.96 0.84 0.81 0.82 1.05 1.35 1.49 1.30 1.22 1.16 0.98 0.93 0.86 0.74 0.66 0.70 0.69 0.72 0.72 0.78 0.78 0.86 0.92 0.94 0.85 0.72 0.68 0.80 1.00 1.19 1.24 1.23 1.55 1.61 1.18 1.25 1.48
0.00 0.00 0.01 0.02 0.03 0.02 0.02 0.07 0.21 0.35 0.52 0.72 0.73 1.08 1.21 1.03 1.19 1.31 1.41 1.56 1.52 1.48 1.27 1.13 1.05 1.01 0.97 0.95 0.93 0.89 0.93 1.00 1.06 1.17 1.21 1.32 1.35 1.23 1.20 1.27 1.36 1.53 1.62 1.84 1.97 2.09 1.83 1.82 1.71
0.00 0.00 0.00 0.01 0.02 0.03 0.06 0.12 0.18 0.41 0.52 0.67 0.85 1.06 1.17 1.11 1.22 1.30 1.56 1.67 1.74 1.59 1.40 1.39 1.24 1.18 1.20 1.27 1.34 1.28 1.34 1.36 1.37 1.49 1.57 1.65 1.80 1.77 1.76 1.67 1.70 1.67 1.85 2.03 2.30 2.23 2.47 2.42 2.15
0.00 0.01 0.01 0.02 0.03 0.06 0.21 0.31 0.28 0.51 0.58 0.68 0.91 1.21 1.20 1.17 1.23 1.09 1.29 1.54 1.70 1.61 1.50 1.49 1.44 1.49 1.61 1.62 1.65 1.76 1.81 1.79 1.78 1.79 1.84 1.90 2.08 2.27 2.21 2.00 1.98 1.88 1.95 2.22 2.47 2.49 2.87 2.71 2.56
0.01 0.03 0.04 0.06 0.09 0.15 0.26 0.45 0.46 0.59 0.63 0.79 0.86 1.05 1.15 1.09 1.15 1.21 1.28 1.35 1.44 1.44 1.51 1.71 1.87 1.97 2.10 2.19 2.24 2.22 2.25 2.14 2.12 2.28 2.37 2.40 2.39 2.42 2.30 2.15 2.07 2.19 2.32 2.49 2.53 2.62 2.93 2.65 2.54
0.01 0.08 0.13 0.15 0.16 0.21 0.39 0.81 0.75 0.78 0.72 0.77 0.82 0.94 1.02 1.02 1.15 1.36 1.33 1.30 1.35 1.40 1.53 1.78 2.03 2.30 2.49 2.56 2.68 2.68 2.58 2.45 2.52 2.56 2.60 2.61 2.52 2.43 2.49 2.25 2.08 2.35 2.50 2.66 2.80 2.77 2.82 2.80 2.73
0.04 0.09 0.16 0.19 0.13 0.15 0.30 0.61 0.59 0.69 0.82 0.79 0.81 0.85 0.88 0.87 0.98 1.11 1.20 1.25 1.41 1.69 1.96 2.27 2.39 2.41 2.50 2.70 2.84 2.69 2.59 2.45 2.42 2.39 2.40 2.37 2.35 2.37 2.62 2.41 2.39 2.57 2.76 2.67 2.50 2.82 2.93 2.84 2.80
0.03 0.08 0.12 0.16 0.15 0.13 0.26 0.43 0.51 0.61 0.75 0.84 0.84 0.88 0.96 1.01 1.19 1.33 1.48 1.58 1.72 2.09 2.39 2.47 2.54 2.77 3.08 3.33 3.23 2.95 2.59 2.37 2.26 2.16 2.10 2.13 2.26 2.34 2.59 2.38 2.44 2.66 2.81 2.84 2.84 2.89 2.87 2.74 2.79
0.03 0.09 0.11 0.13 0.18 0.20 0.29 0.36 0.60 0.80 0.89 0.98 1.14 1.33 1.46 1.60 1.67 1.76 1.92 2.08 2.15 2.19 2.36 2.54 2.87 3.23 3.35 3.32 3.29 3.20 2.86 2.55 2.21 1.98 1.97 2.05 2.08 2.24 2.52 2.25 2.55 2.70 2.70 2.80 2.84 2.99 2.85 2.70 2.87
0.05 0.10 0.13 0.16 0.22 0.21 0.34 0.45 0.65 0.98 1.06 1.03 1.07 1.10 1.12 1.46 1.69 1.84 2.00 2.08 2.06 2.17 2.41 2.70 2.99 3.31 3.22 3.36 3.56 3.45 3.17 2.58 2.22 2.02 1.98 2.03 2.08 2.15 2.31 2.57 2.63 2.70 2.72 2.74 2.72 2.76 2.57 2.38 2.72
0.06 0.09 0.13 0.17 0.28 0.24 0.34 0.62 0.78 1.01 1.15 1.03 0.98 0.96 0.87 1.09 1.38 1.52 1.61 1.72 1.96 2.31 2.68 2.92 3.09 3.16 3.14 3.26 3.36 3.07 2.83 2.40 2.27 2.26 2.15 2.08 2.20 2.25 2.39 2.55 2.64 2.57 2.48 2.51 2.61 2.53 2.39 2.22 2.35
0.08 0.07 0.08 0.13 0.23 0.33 0.42 0.86 1.12 1.30 1.18 0.97 0.98 1.04 1.12 1.20 1.22 1.32 1.44 1.68 2.02 2.35 2.71 3.04 3.02 3.00 2.95 3.05 3.12 2.96 2.69 2.41 2.31 2.32 2.11 1.96 1.93 1.99 2.11 2.19 2.34 2.41 2.40 2.36 2.33 2.31 2.32 2.23 2.11
0.06 0.05 0.06 0.11 0.19 0.31 0.44 0.77 1.18 1.26 1.14 0.92 0.88 1.04 1.23 1.16 1.10 1.23 1.37 1.57 1.76 2.05 2.35 2.63 2.82 2.86 2.79 2.75 2.72 2.69 2.50 2.25 2.10 2.04 1.92 1.87 1.90 1.81 1.82 1.93 2.11 2.17 2.10 2.08 2.23 2.39 2.36 2.20 2.05
0.04 0.05 0.09 0.18 0.33 0.56 0.43 0.55 0.95 1.14 1.01 0.84 0.84 0.94 1.08 1.24 1.24 1.29 1.48 1.60 1.68 1.86 2.11 2.29 2.42 2.47 2.42 2.34 2.30 2.33 2.26 2.20 2.05 1.90 1.91 1.94 1.87 1.75 1.69 1.72 1.83 1.91 1.90 1.87 1.91 2.02 2.05 2.03 2.11
0.05 0.13 0.38 0.65 0.88 0.77 0.49 0.61 0.97 0.87 0.72 0.65 0.70 0.89 1.09 1.31 1.32 1.40 1.56 1.64 1.70 1.74 1.79 1.85 1.90 1.95 1.88 1.80 1.75 1.80 1.81 1.83 1.77 1.75 1.80 1.84 1.77 1.69 1.65 1.60 1.55 1.56 1.60 1.68 1.83 1.85 1.85 1.94 2.04
0.09 0.17 0.44 0.52 0.59 0.60 0.60 0.83 0.91 0.72 0.60 0.59 0.62 0.75 0.99 1.12 1.18 1.28 1.36 1.27 1.22 1.24 1.29 1.33 1.34 1.36 1.32 1.34 1.37 1.41 1.50 1.54 1.53 1.65 1.66 1.70 1.68 1.63 1.52 1.39 1.35 1.34 1.36 1.45 1.62 1.78 1.80 1.88 1.93
0.17 0.22 0.21 0.34 0.37 0.58 0.72 0.83 0.78 0.61 0.70 0.74 0.77 0.81 0.84 0.84 0.82 0.84 0.86 0.90 0.95 0.98 0.98 0.98 1.02 1.03 0.98 0.97 1.07 1.15 1.21 1.28 1.30 1.41 1.44 1.42 1.41 1.34 1.30 1.27 1.26 1.22 1.25 1.30 1.33 1.46 1.48 1.56 1.62
0.18 0.29 0.39 0.56 0.66 0.67 0.69 0.90 1.02 0.99 0.96 0.90 1.01 1.20 1.03 0.74 0.62 0.59 0.59 0.63 0.67 0.70 0.75 0.80 0.89 0.97 0.95 0.89 0.89 0.90 0.95 1.00 1.10 1.17 1.20 1.23 1.26 1.24 1.17 1.18 1.18 1.13 1.11 1.14 1.17 1.21 1.26 1.24 1.29
0.28 0.35 0.44 0.55 0.60 0.65 0.72 0.83 0.69 0.95 1.00 0.99 1.00 1.00 0.83 0.54 0.38 0.33 0.34 0.39 0.46 0.59 0.67 0.69 0.80 0.88 0.84 0.74 0.73 0.78 0.80 0.83 0.89 0.97 0.98 1.03 1.09 1.16 1.18 1.14 1.10 1.01 0.95 0.95 0.97 0.98 1.08 1.09 1.09
0.23 0.35 0.45 0.57 0.57 0.59 0.67 0.78 0.52 0.67 0.71 0.71 0.73 0.57 0.44 0.32 0.23 0.21 0.21 0.25 0.33 0.42 0.47 0.55 0.64 0.74 0.76 0.72 0.72 0.76 0.79 0.79 0.79 0.83 0.81 0.83 0.88 0.91 0.93 0.93 0.99 1.02 1.01 0.98 0.97 0.93 0.92 0.97 1.00